Location: Leiter
(44.7178°N, 106.2687°W)
Time: 18:05:28
(UTC+00:00)

CUBESAT XI-V - Pass Details

Date: 02 July 2022
Orbit: 668 x 690 km, 98.1° (Epoch: 18 August)

Event Time Altitude Azimuth Distance (km) Brightness Sun altitude
Exits shadow 10:06:57 13° 245° (WSW) 1,921 ? -11.1°
Maximum altitude 10:08:40 15° 270° (W) 1,778 ? -10.9°
Drops below altitude 10° 10:11:21 10° 306° (NW) 2,108 ? -10.5°
Sets 10:14:31 0° 329° (NNW) 3,025 ? -10.2°
